Location: Krasnoyarskiy Pitomnik
(51.1333°N, 71.6167°E)
Time: 22:44:09
(UTC+00:00)

A-11 Canister half - Pass Details

Date: 27 April 2024
Orbit: 1525 x 1683 km, 47.3° (Epoch: 19 May)

Event Time Altitude Azimuth Distance (km) Brightness Sun altitude
Rises 06:22:15 0° 288° (WNW) 4,938 11.4 51.6°
Reaches altitude 10° 06:26:10 10° 276° (W) 3,950 11.1 51.8°
Maximum altitude 06:33:44 25° 227° (SW) 2,927 11.1 52.1°
Drops below altitude 10° 06:41:16 10° 178° (S) 3,905 12.0 52.4°
Sets 06:45:08 0° 166° (SSE) 4,869 12.2 52.5°
